User: anonymous   Login
Location: Unspecified
(0.0000°N, 0.0000°E)
Time: 13:05:28
(UTC+00:00)
Language:

SES-16/GOVSAT-1 - Orbit

View from above orbital plane
View from above orbital plane
View from above satellite
View from above satellite

Ground track
Ground track

The orbit data is extracted from the following two-line orbital elements,

1 43178U 18013A   20325.54592271 0.00000000  00000-0  00000-0 0    06
2 43178   0.0110 277.9435 0003453  53.8021 306.1979  1.00270000    03
Epoch (UTC): 20 November 2020 13:06:07
Eccentricity: 0.0003453
inclination: 0.0110°
perigee height: 35772 km
apogee height: 35801 km
right ascension of ascending node: 277.9435°
argument of perigee: 53.8021°
revolutions per day: 1.00270000
mean anomaly at epoch: 306.1979°
orbit number at epoch: 0

The dashed part of the orbit path shows where the satellite is in the earth's shadow,  

DLR